FW7508 Weather Reports


Display with metric or nautical units.
time (UTC)temp
F
wind
direction
speed
MPH
gust
MPH
rain 1hr
in
rain 24hr
in
rain mn
in
humidity
%
barometer
mb
20260507161046 47 283 1.0 1.0 0.00 0.00 0.00 56 1017.7
20260507160542 46 317 3.0 3.0 0.00 0.00 0.00 58 1017.6
20260507160039 47 278 3.0 3.0 0.00 0.00 0.00 61 1018.0
20260507155534 47 307 2.0 2.0 0.00 0.00 0.00 59 1017.9
20260507155032 46 261 2.0 2.0 0.00 0.00 0.00 58 1017.8
20260507154528 47 277 3.0 5.0 0.00 0.00 0.00 62 1017.8
20260507154025 48 0 5.0 6.0 0.00 0.00 0.00 57 1017.8
20260507153522 48 317 3.0 3.0 0.00 0.00 0.00 61 1018.1
20260507153018 47 240 2.0 3.0 0.00 0.00 0.00 63 1018.0
20260507152514 46 263 2.0 3.0 0.00 0.00 0.00 64 1018.0
20260507152011 47 339 5.0 6.0 0.00 0.00 0.00 65 1018.0
20260507151507 46 282 2.0 2.0 0.00 0.00 0.00 66 1018.0
20260507151004 46 241 4.0 7.0 0.00 0.00 0.00 65 1017.9
20260507150501 46 276 3.0 5.0 0.00 0.00 0.00 67 1017.9
20260507145957 46 245 4.0 6.0 0.00 0.00 0.00 65 1017.9
20260507145453 47 268 3.0 3.0 0.00 0.00 0.00 65 1017.7
20260507144950 47 273 2.0 2.0 0.00 0.00 0.00 65 1017.8
20260507144447 46 278 2.0 3.0 0.00 0.00 0.00 66 1017.7
20260507143944 46 330 2.0 2.0 0.00 0.00 0.00 67 1017.9
20260507143442 45 302 1.0 2.0 0.00 0.00 0.00 69 1017.6
20260507142938 45 333 2.0 3.0 0.00 0.00 0.00 71 1017.7
20260507142434 45 252 3.0 3.0 0.00 0.00 0.00 70 1018.1
20260507141931 45 282 3.0 3.0 0.00 0.00 0.00 70 1017.8
20260507141427 46 259 3.0 3.0 0.00 0.00 0.00 69 1017.9
20260507140924 45 325 1.0 2.0 0.00 0.00 0.00 70 1017.8
20260507140420 45 280 1.0 2.0 0.00 0.00 0.00 71 1017.8
20260507135918 44 333 4.0 5.0 0.00 0.00 0.00 71 1017.8
20260507135414 45 235 3.0 5.0 0.00 0.00 0.00 71 1017.9
20260507134912 44 323 2.0 2.0 0.00 0.00 0.00 73 1017.9
20260507134408 45 322 4.0 5.0 0.00 0.00 0.00 71 1017.9
20260507133904 44 278 4.0 6.0 0.00 0.00 0.00 72 1017.6
20260507133400 44 275 3.0 6.0 0.00 0.00 0.00 71 1017.5
20260507132859 45 280 3.0 3.0 0.00 0.00 0.00 71 1017.7
20260507132355 44 304 3.0 3.0 0.00 0.00 0.00 70 1017.9
20260507131852 45 266 4.0 5.0 0.00 0.00 0.00 69 1017.6
20260507131349 45 303 3.0 5.0 0.00 0.00 0.00 69 1017.6
20260507130846 45 313 1.0 1.0 0.00 0.00 0.00 70 1017.5
20260507130343 45 273 3.0 6.0 0.00 0.00 0.00 70 1017.4
20260507125842 44 357 1.0 2.0 0.00 0.00 0.00 71 1017.6
20260507125338 45 297 2.0 2.0 0.00 0.00 0.00 70 1017.5
20260507124836 44 277 1.0 1.0 0.00 0.00 0.00 70 1017.2
20260507124332 44 301 1.0 1.0 0.00 0.00 0.00 71 1017.2
20260507123831 44 305 2.0 3.0 0.00 0.00 0.00 71 1017.0
20260507123328 44 271 3.0 3.0 0.00 0.00 0.00 71 1017.3
20260507122824 44 290 1.0 2.0 0.00 0.00 0.00 71 1017.2
20260507122319 44 290 2.0 3.0 0.00 0.00 0.00 72 1017.2
20260507121816 44 284 1.0 1.0 0.00 0.00 0.00 71 1017.2
20260507121312 43 281 1.0 1.0 0.00 0.00 0.00 72 1017.1
20260507120808 43 249 3.0 3.0 0.00 0.00 0.00 72 1017.1
20260507120305 43 309 2.0 2.0 0.00 0.00 0.00 73 1017.2
20260507115801 43 295 0.0 1.0 0.00 0.00 0.00 74 1017.2
20260507115257 42 282 3.0 3.0 0.00 0.00 0.00 74 1017.0
20260507114753 42 289 2.0 3.0 0.00 0.00 0.00 75 1017.1
20260507114250 42 282 2.0 2.0 0.00 0.00 0.00 75 1016.8
20260507113748 42 281 1.0 2.0 0.00 0.00 0.00 75 1016.9
20260507113244 42 289 2.0 2.0 0.00 0.00 0.00 76 1016.9
20260507112742 41 290 1.0 1.0 0.00 0.00 0.00 77 1016.9
20260507112238 41 287 0.0 1.0 0.00 0.00 0.00 76 1017.0
20260507111736 41 288 1.0 2.0 0.00 0.00 0.00 76 1016.9
20260507111232 41 285 1.0 1.0 0.00 0.00 0.00 77 1016.8
20260507110728 41 284 1.0 2.0 0.00 0.00 0.00 78 1016.5
20260507110226 41 284 1.0 1.0 0.00 0.00 0.00 78 1016.6
20260507105722 40 284 2.0 2.0 0.00 0.00 0.00 79 1016.7
20260507105218 40 278 1.0 1.0 0.00 0.00 0.00 80 1016.6
20260507104716 40 287 0.0 1.0 0.00 0.00 0.00 80 1016.5
20260507104212 39 284 1.0 1.0 0.00 0.00 0.00 82 1016.5
20260507103708 39 284 0.0 1.0 0.00 0.00 0.00 83 1016.1
20260507103205 39 288 0.0 0.0 0.00 0.00 0.00 83 1016.5
20260507102701 39 284 0.0 1.0 0.00 0.00 0.00 83 1016.5
20260507102158 39 290 0.0 0.0 0.00 0.00 0.00 82 1016.2
20260507101654 39 291 0.0 0.0 0.00 0.00 0.00 81 1016.2
20260507101149 40 290 0.0 0.0 0.00 0.00 0.00 81 1016.2
20260507100647 40 333 0.0 0.0 0.00 0.00 0.00 80 1016.1
20260507100145 40 290 0.0 0.0 0.00 0.00 0.00 79 1016.2
20260507095643 40 283 0.0 0.0 0.00 0.00 0.00 78 1016.1
20260507095139 41 284 0.0 0.0 0.00 0.00 0.00 77 1016.0
20260507094636 41 284 0.0 0.0 0.00 0.00 0.00 77 1016.2
20260507094132 41 316 1.0 1.0 0.00 0.00 0.00 77 1016.1
20260507093630 41 278 1.0 1.0 0.00 0.00 0.00 76 1016.2
20260507093129 41 292 1.0 1.0 0.00 0.00 0.00 75 1016.1
20260507092625 41 293 1.0 1.0 0.00 0.00 0.00 74 1016.2
20260507092121 41 289 0.0 0.0 0.00 0.00 0.00 73 1016.1
20260507091618 42 293 0.0 1.0 0.00 0.00 0.00 72 1016.0
20260507091108 41 291 0.0 1.0 0.00 0.00 0.00 74 1016.1
20260507090604 41 278 1.0 2.0 0.00 0.00 0.00 74 1016.1
20260507085558 42 311 1.0 1.0 0.00 0.00 0.00 73 1016.3
20260507085054 42 286 0.0 1.0 0.00 0.00 0.00 73 1016.2
20260507084552 43 301 1.0 1.0 0.00 0.00 0.00 72 1016.5
20260507084049 43 292 0.0 0.0 0.00 0.00 0.00 72 1016.6
20260507083545 43 296 1.0 1.0 0.00 0.00 0.00 72 1016.6
20260507083042 43 284 1.0 1.0 0.00 0.00 0.00 72 1016.5
20260507082538 43 293 0.0 0.0 0.00 0.00 0.00 72 1016.6
20260507082035 43 291 1.0 1.0 0.00 0.00 0.00 72 1016.2
20260507081531 43 292 1.0 2.0 0.00 0.00 0.00 71 1016.5
20260507081028 43 296 1.0 1.0 0.00 0.00 0.00 71 1016.8
20260507080524 43 285 1.0 2.0 0.00 0.00 0.00 70 1016.8
20260507080021 43 280 1.0 1.0 0.00 0.00 0.00 70 1016.5
20260507075516 43 267 2.0 2.0 0.00 0.00 0.00 70 1016.6
20260507075012 43 304 1.0 1.0 0.00 0.00 0.00 70 1016.7
20260507074509 43 285 0.0 0.0 0.00 0.00 0.00 70 1016.7
20260507074008 43 279 2.0 2.0 0.00 0.00 0.00 70 1016.8
20260507073503 43 293 0.0 1.0 0.00 0.00 0.00 70 1016.6
20260507073000 43 292 0.0 0.0 0.00 0.00 0.00 70 1016.8
20260507072458 43 276 1.0 1.0 0.00 0.00 0.00 70 1016.6
20260507071954 43 286 0.0 1.0 0.00 0.00 0.00 71 1016.7
20260507071452 43 7 4.0 7.0 0.00 0.00 0.00 70 1016.8
20260507070948 43 290 1.0 1.0 0.00 0.00 0.00 70 1016.6
20260507070446 43 306 0.0 0.0 0.00 0.00 0.00 69 1016.6
20260507065942 44 264 1.0 2.0 0.00 0.00 0.00 69 1016.6
20260507065439 44 242 2.0 3.0 0.00 0.00 0.00 69 1016.5
20260507064936 44 297 0.0 0.0 0.00 0.00 0.00 68 1016.8
20260507064435 44 293 1.0 1.0 0.00 0.00 0.00 69 1016.8
20260507063932 44 299 0.0 0.0 0.00 0.00 0.00 68 1016.9
20260507063429 44 282 3.0 3.0 0.00 0.00 0.00 67 1016.9
20260507062926 44 298 1.0 1.0 0.00 0.00 0.00 67 1016.9
20260507062423 44 316 0.0 1.0 0.00 0.00 0.00 67 1017.1
20260507061921 44 288 2.0 3.0 0.00 0.00 0.00 67 1016.9
20260507061418 44 285 2.0 3.0 0.00 0.00 0.00 67 1016.9
20260507060917 44 303 0.0 0.0 0.00 0.00 0.00 68 1017.0
20260507060413 44 258 2.0 2.0 0.00 0.00 0.00 69 1016.8
20260507055910 44 269 1.0 1.0 0.00 0.00 0.00 68 1017.0
20260507055404 44 308 0.0 1.0 0.00 0.00 0.00 68 1016.9
20260507054902 44 284 1.0 2.0 0.00 0.00 0.00 68 1016.9
20260507054358 45 310 2.0 2.0 0.00 0.00 0.00 67 1016.9
20260507053855 45 276 1.0 2.0 0.00 0.00 0.00 68 1017.0
20260507053353 45 300 1.0 1.0 0.00 0.00 0.00 68 1017.1
20260507052852 45 354 3.0 3.0 0.00 0.00 0.00 68 1016.8
20260507052348 45 278 1.0 1.0 0.00 0.00 0.00 68 1017.1
20260507051845 46 297 0.0 1.0 0.00 0.00 0.00 67 1017.1
20260507051343 46 283 4.0 6.0 0.00 0.00 0.00 66 1017.0
20260507050839 46 330 1.0 3.0 0.00 0.00 0.00 67 1017.2
20260507050336 46 289 3.0 3.0 0.00 0.00 0.00 66 1016.8
20260507045833 46 290 2.0 3.0 0.00 0.00 0.00 68 1017.0
20260507045329 46 277 1.0 2.0 0.00 0.00 0.00 67 1017.0
20260507044827 46 356 0.0 1.0 0.00 0.00 0.00 69 1017.0
20260507044323 46 6 3.0 5.0 0.00 0.00 0.00 69 1016.7
20260507043819 46 271 1.0 1.0 0.00 0.00 0.00 69 1017.0
20260507043316 46 282 0.0 1.0 0.00 0.00 0.00 70 1016.8
20260507042812 46 284 1.0 1.0 0.00 0.00 0.00 69 1016.8
20260507042308 46 286 2.0 3.0 0.00 0.00 0.00 67 1016.9
20260507041805 46 287 1.0 1.0 0.00 0.00 0.00 67 1016.6
20260507041302 46 287 0.0 0.0 0.00 0.00 0.00 67 1016.8
20260507040759 46 288 1.0 1.0 0.00 0.00 0.00 66 1016.6
20260507040255 46 287 0.0 0.0 0.00 0.00 0.00 67 1016.9
20260507035751 46 285 1.0 1.0 0.00 0.00 0.00 67 1016.9
20260507035246 46 292 0.0 1.0 0.00 0.00 0.00 66 1016.9
20260507034744 46 313 2.0 2.0 0.00 0.00 0.00 65 1016.8
20260507034241 46 289 1.0 1.0 0.00 0.00 0.00 65 1016.6
20260507033739 47 288 0.0 0.0 0.00 0.00 0.00 64 1016.7
20260507033236 46 302 1.0 2.0 0.00 0.00 0.00 64 1016.8
20260507032734 47 288 0.0 1.0 0.00 0.00 0.00 63 1016.8
20260507032230 46 287 2.0 2.0 0.00 0.00 0.00 64 1016.7
20260507031726 46 286 0.0 0.0 0.00 0.00 0.00 65 1016.6
20260507031223 46 287 0.0 0.0 0.00 0.00 0.00 65 1016.8
20260507030720 46 287 0.0 0.0 0.00 0.00 0.00 65 1016.8
20260507030218 46 287 0.0 0.0 0.00 0.00 0.00 65 1016.7
20260507025714 46 287 0.0 0.0 0.00 0.00 0.00 65 1016.8
20260507025212 46 287 0.0 0.0 0.00 0.00 0.00 63 1016.8
20260507024710 46 276 1.0 1.0 0.00 0.00 0.00 62 1016.9
20260507024207 47 288 1.0 1.0 0.00 0.00 0.00 60 1016.8
20260507023702 47 285 0.0 1.0 0.00 0.00 0.00 59 1016.8
20260507023159 47 289 1.0 1.0 0.00 0.00 0.00 59 1016.8
20260507022656 47 290 0.0 0.0 0.00 0.00 0.00 58 1016.9
20260507022152 47 285 0.0 1.0 0.00 0.00 0.00 58 1016.7
20260507021649 47 285 0.0 0.0 0.00 0.00 0.00 57 1016.7
20260507021144 48 286 0.0 1.0 0.00 0.00 0.00 57 1016.6
20260507020643 48 268 2.0 2.0 0.00 0.00 0.00 56 1016.3
20260507020138 48 286 0.0 0.0 0.00 0.00 0.00 56 1016.7
20260507015637 48 287 1.0 1.0 0.00 0.00 0.00 56 1016.7
20260507015134 48 285 0.0 1.0 0.00 0.00 0.00 57 1016.7
20260507014630 48 284 1.0 1.0 0.00 0.00 0.00 56 1016.5
20260507014126 48 289 1.0 1.0 0.00 0.00 0.00 57 1016.6
20260507013623 48 288 0.0 0.0 0.00 0.00 0.00 57 1016.6
20260507013120 48 287 0.0 0.0 0.00 0.00 0.00 58 1016.5
20260507012618 48 289 0.0 0.0 0.00 0.00 0.00 58 1016.5
20260507012113 48 289 0.0 0.0 0.00 0.00 0.00 57 1016.5
20260507011611 48 284 0.0 0.0 0.00 0.00 0.00 56 1016.5
20260507011107 48 289 0.0 0.0 0.00 0.00 0.00 56 1016.2
20260507010602 48 287 0.0 0.0 0.00 0.00 0.00 55 1016.0
20260507010058 48 281 1.0 1.0 0.00 0.00 0.00 55 1016.3
20260507005556 48 285 0.0 0.0 0.00 0.00 0.00 54 1016.2
20260507005052 48 283 0.0 0.0 0.00 0.00 0.00 54 1016.3
20260507004549 48 283 0.0 0.0 0.00 0.00 0.00 53 1016.1
20260507004046 48 286 0.0 1.0 0.00 0.00 0.00 53 1016.0
20260507003542 48 287 0.0 0.0 0.00 0.00 0.00 52 1016.1
20260507003037 48 287 0.0 0.0 0.00 0.00 0.00 52 1016.1
20260507002534 48 289 0.0 0.0 0.00 0.00 0.00 52 1016.0
20260507002030 48 281 0.0 0.0 0.00 0.00 0.00 52 1016.2
20260507001527 48 280 0.0 0.0 0.00 0.00 0.00 51 1016.0
20260507001025 49 288 0.0 0.0 0.00 0.00 0.00 51 1016.1
20260507000520 49 273 1.0 1.0 0.00 0.00 0.00 51 1016.0
20260507000016 49 282 0.0 0.0 0.00 0.00 0.00 50 1015.9
20260506235514 49 284 0.0 0.0 0.00 0.00 0.00 50 1015.9
20260506235009 49 285 0.0 0.0 0.00 0.00 0.00 48 1016.0
20260506234507 49 287 1.0 1.0 0.00 0.00 0.00 49 1016.0
20260506234004 49 277 1.0 1.0 0.00 0.00 0.00 48 1016.1
20260506233501 49 286 1.0 1.0 0.00 0.00 0.00 47 1016.0
20260506232957 49 288 1.0 1.0 0.00 0.00 0.00 48 1016.0
20260506232454 49 285 1.0 1.0 0.00 0.00 0.00 47 1016.1
20260506231949 49 294 1.0 1.0 0.00 0.00 0.00 47 1016.3
20260506231446 50 284 1.0 1.0 0.00 0.00 0.00 47 1016.2
20260506230938 50 286 1.0 1.0 0.00 0.00 0.00 47 1016.1
20260506230434 50 290 0.0 0.0 0.00 0.00 0.00 47 1016.2
20260506225931 50 272 1.0 2.0 0.00 0.00 0.00 49 1016.3
20260506225429 50 289 1.0 1.0 0.00 0.00 0.00 48 1016.1
20260506224926 50 206 1.0 5.0 0.00 0.00 0.00 47 1016.2
20260506224423 50 291 1.0 1.0 0.00 0.00 0.00 47 1016.0
20260506223919 50 290 0.0 1.0 0.00 0.00 0.00 46 1016.2
20260506223415 50 285 0.0 0.0 0.00 0.00 0.00 47 1016.1
20260506222912 50 281 1.0 1.0 0.00 0.00 0.00 44 1016.3
20260506222409 51 276 1.0 2.0 0.00 0.00 0.00 44 1016.2
20260506221906 51 288 2.0 2.0 0.00 0.00 0.00 45 1016.2
20260506221402 50 278 1.0 1.0 0.00 0.00 0.00 46 1016.2
20260506220900 50 279 2.0 2.0 0.00 0.00 0.00 45 1016.2
20260506220355 50 282 1.0 1.0 0.00 0.00 0.00 45 1016.2
20260506215852 50 278 1.0 2.0 0.00 0.00 0.00 45 1016.1
20260506215348 51 272 1.0 2.0 0.00 0.00 0.00 44 1016.0
20260506214844 52 289 2.0 2.0 0.00 0.00 0.00 41 1015.9
20260506214341 52 288 2.0 2.0 0.00 0.00 0.00 42 1016.0
20260506213839 52 290 3.0 3.0 0.00 0.00 0.00 41 1015.9
20260506213336 53 266 2.0 2.0 0.00 0.00 0.00 41 1016.1
20260506212833 53 282 2.0 2.0 0.00 0.00 0.00 39 1016.1
20260506212329 53 286 2.0 3.0 0.00 0.00 0.00 41 1016.0
20260506211824 54 283 3.0 3.0 0.00 0.00 0.00 40 1016.0
20260506211320 54 270 4.0 5.0 0.00 0.00 0.00 38 1016.0
20260506210818 53 275 4.0 5.0 0.00 0.00 0.00 40 1016.0
20260506210315 55 277 2.0 5.0 0.00 0.00 0.00 38 1016.1
20260506205812 54 275 1.0 1.0 0.00 0.00 0.00 40 1016.1
20260506205308 54 289 1.0 2.0 0.00 0.00 0.00 40 1016.1
20260506204804 54 273 3.0 3.0 0.00 0.00 0.00 40 1016.1
20260506204303 54 248 2.0 3.0 0.00 0.00 0.00 40 1016.0
20260506203800 54 274 2.0 2.0 0.00 0.00 0.00 39 1016.2
20260506203257 54 289 2.0 2.0 0.00 0.00 0.00 39 1016.2
20260506202754 54 278 2.0 3.0 0.00 0.00 0.00 41 1016.3
20260506202251 53 280 1.0 2.0 0.00 0.00 0.00 41 1016.6
20260506201747 53 285 3.0 3.0 0.00 0.00 0.00 42 1016.6
20260506201244 53 279 1.0 2.0 0.00 0.00 0.00 41 1016.7
20260506200741 54 266 2.0 2.0 0.00 0.00 0.00 42 1016.6
20260506200237 55 284 1.0 2.0 0.00 0.00 0.00 41 1016.6
20260506195734 55 277 3.0 3.0 0.00 0.00 0.00 41 1016.7
20260506195230 54 263 2.0 2.0 0.00 0.00 0.00 40 1016.8
20260506194728 55 269 3.0 3.0 0.00 0.00 0.00 39 1016.7
20260506194224 54 275 1.0 1.0 0.00 0.00 0.00 40 1016.8
20260506193722 53 304 4.0 5.0 0.00 0.00 0.00 40 1016.7
20260506193219 54 263 1.0 1.0 0.00 0.00 0.00 40 1016.6
20260506192715 53 282 1.0 1.0 0.00 0.00 0.00 41 1016.7
20260506192212 53 253 1.0 1.0 0.00 0.00 0.00 40 1016.7
20260506191709 53 272 0.0 1.0 0.00 0.00 0.00 41 1016.8
20260506191205 53 274 2.0 2.0 0.00 0.00 0.00 40 1016.5
20260506190703 54 326 4.0 5.0 0.00 0.00 0.00 39 1016.7
20260506190159 54 278 3.0 3.0 0.00 0.00 0.00 39 1016.7
20260506185656 53 260 2.0 2.0 0.00 0.00 0.00 40 1016.8
20260506185152 54 260 3.0 3.0 0.00 0.00 0.00 39 1016.8
20260506184650 53 302 2.0 2.0 0.00 0.00 0.00 41 1016.7
20260506184147 53 271 2.0 3.0 0.00 0.00 0.00 40 1016.6
20260506183643 53 272 2.0 2.0 0.00 0.00 0.00 39 1016.6
20260506183139 53 257 2.0 2.0 0.00 0.00 0.00 40 1016.9
20260506182637 53 262 3.0 3.0 0.00 0.00 0.00 40 1016.8
20260506182134 53 288 2.0 2.0 0.00 0.00 0.00 42 1016.8
20260506181632 52 253 1.0 2.0 0.00 0.00 0.00 41 1016.9
20260506181129 52 276 1.0 2.0 0.00 0.00 0.00 42 1016.8
20260506180626 52 267 1.0 2.0 0.00 0.00 0.00 42 1016.9
20260506180122 51 274 1.0 2.0 0.00 0.00 0.00 40 1017.0
20260506175618 51 274 1.0 1.0 0.00 0.00 0.00 39 1016.9
20260506175114 52 273 3.0 3.0 0.00 0.00 0.00 44 1017.1
20260506174614 52 245 2.0 2.0 0.00 0.00 0.00 42 1016.9
20260506174110 50 269 3.0 3.0 0.00 0.00 0.00 45 1017.0
20260506173608 51 284 3.0 3.0 0.00 0.00 0.00 47 1017.0
20260506173104 51 274 3.0 5.0 0.00 0.00 0.00 46 1017.3
20260506172602 51 273 3.0 3.0 0.00 0.00 0.00 45 1017.2
20260506172057 52 275 1.0 2.0 0.00 0.00 0.00 46 1017.2
20260506171555 51 246 2.0 2.0 0.00 0.00 0.00 47 1017.3
20260506171053 52 263 1.0 1.0 0.00 0.00 0.00 40 1017.3
20260506170550 52 273 1.0 2.0 0.00 0.00 0.00 42 1017.1
20260506170047 51 311 5.0 7.0 0.00 0.00 0.00 42 1017.2
20260506165546 51 290 3.0 3.0 0.00 0.00 0.00 45 1017.3
20260506165041 51 274 1.0 2.0 0.00 0.00 0.00 45 1017.3
20260506164539 51 289 2.0 2.0 0.00 0.00 0.00 51 1017.2
20260506164036 50 273 0.0 1.0 0.00 0.00 0.00 52 1017.4
20260506163532 50 264 2.0 2.0 0.00 0.00 0.00 53 1016.9
20260506163027 50 272 0.0 1.0 0.00 0.00 0.00 55 1017.1
20260506162524 50 284 2.0 2.0 0.00 0.00 0.00 61 1017.1
20260506162021 49 242 1.0 1.0 0.00 0.00 0.00 61 1017.2